[[{"header":{"parameterUnit":"m.s-1","parameterCategory":1,"la1":30.2991,"la2":30.254,"lo1":-89.0895,"lo2":-89.0444,"dy":0.0017,"dx":0.0017,"nx":28,"ny":28,"refTime":"2024-05-27T09:00:00:Z","depth":0,"parameterNumber":2,"parameterNumberName":"U-component_of_WINDS"},"data":[0,0,0,0,0,0,0,0,0,0,0,0,0,0,0,0,0,0,0,0,0,0,0,0,0,0,0,0,0,0,0,0,0,0,0,0,0,0,0,0,0,0,0,0,0,0,0,0,0,0,0,0,0,0,0,0,0,0,0.6768,0.6768,0,0.6778,0.6778,0.6778,0.6765,0.6764,0.6764,0.6763,0.6774,0.6775,0.6776,0,0,0,0,0,0,0,0,0,0,0,0,0,0.6739,0.6739,0.6768,0.6769,0.6769,0.6778,0.6778,0.6778,0.6765,0.6764,0.6764,0.6763,0.6774,0.6775,0.6776,0,0,0,0,0,0,0,0,0,0,0,0,0,0.675,0.674,0.6768,0.6763,0.6763,0.6778,0.6778,0.6778,0.6765,0.6764,0.6764,0.6763,0.6774,0.6775,0.6776,0.6797,0,0,0.6779,0.678,0,0,0,0,0,0,0,0,0.675,0.6752,0.6764,0.6763,0.6763,0.677,0.6772,0.6785,0.6765,0.6764,0.6763,0.6763,0.6773,0.6774,0.6778,0.6798,0.6798,0.6779,0.678,0.6781,0.6781,0,0,0,0,0,0,0,0.6749,0.6751,0.6772,0.6764,0.6764,0.676,0.6761,0.6774,0.6773,0.6764,0.6763,0.6765,0.6773,0.6777,0.6778,0.6798,0.6779,0.678,0.6781,0.6782,0.6836,0.6837,0,0,0,0,0,0,0.6749,0.675,0.6772,0.6773,0.6754,0.6762,0.6762,0.6768,0.6773,0.6773,0.6765,0.6764,0.6775,0.6777,0.6778,0.6803,0.6781,0.6782,0.6782,0.6835,0.6836,0.6837,0,0,0,0,0,0,0.6748,0.6751,0.6772,0.6761,0.6764,0.6763,0.6769,0.6769,0.6773,0.6773,0.6773,0.6769,0.6775,0.6777,0.6793,0.6803,0.6782,0.6783,0.6834,0.6835,0.6836,0.6853,0,0,0,0,0,0,0.6747,0.6751,0.6759,0.6762,0.6764,0.6785,0.677,0.6769,0.6774,0.6773,0.6777,0.6777,0.6774,0.6791,0.6794,0.6805,0.6784,0.6833,0.6835,0.6836,0.6852,0.6855,0.6858,0,0,0,0,0,0.6746,0.6763,0.6759,0.6762,0.6774,0.6786,0.6788,0.6784,0.6775,0.6783,0.6784,0.6777,0.6802,0.6793,0.6796,0.6807,0.6833,0.6834,0.6836,0.6851,0.6854,0.6858,0,0,0,0,0,0,0.6762,0.6764,0.6759,0.6777,0.6782,0.6784,0.6794,0.6788,0.6795,0.6794,0.6789,0.679,0.6807,0.6809,0.6798,0.6828,0.6816,0.6818,0.6826,0.683,0.6832,0.6831,0.6785,0,0,0,0,0,0.6768,0.6777,0.6778,0.6794,0.6796,0.6795,0.68,0.6796,0.6801,0.6803,0.6804,0.6809,0.6818,0.6824,0.6832,0.6852,0.6853,0.6861,0.6864,0.6867,0.6869,0.6879,0.6883,0.6843,0.6843,0.6843,0,0,0.6779,0.6781,0.6787,0.6797,0.68,0.681,0.6796,0.6807,0.6815,0.6805,0.6819,0.6821,0.6826,0.6843,0.6851,0.6845,0.688,0.6869,0.6871,0.6872,0.6881,0.6885,0.6889,0.6844,0.6844,0.6843,0,0,0.6805,0.6808,0.6821,0.6824,0.6829,0.6828,0.6831,0.6834,0.6834,0.6849,0.6841,0.685,0.6866,0.6869,0.6873,0.6901,0.6894,0.6903,0.6919,0.6929,0.6932,0.6935,0.6944,0.6947,0.6906,0.6906,0.6906,0,0.6819,0.6833,0.6829,0.684,0.6845,0.6836,0.6849,0.6853,0.686,0.6863,0.6856,0.6875,0.6878,0.6896,0.6903,0.6907,0.691,0.6903,0.6932,0.6934,0.6937,0.6946,0.6949,0.6907,0.6906,0.6906,0.6906,0,0.685,0.686,0.687,0.6877,0.6883,0.6895,0.6893,0.6899,0.6895,0.6895,0.691,0.6913,0.6921,0.6926,0.6922,0.6943,0.6939,0.6932,0.692,0.6942,0.695,0.6954,0.6908,0.6908,0.6907,0.6907,0,0,0.6886,0.689,0.6894,0.6896,0.6901,0.6909,0.6921,0.6929,0.6934,0.6939,0.6949,0.6962,0.6956,0.696,0.6957,0.6966,0.6987,0.6958,0.6958,0.6963,0.701,0.7015,0.7019,0.6983,0.6984,0.6984,0.7009,0,0.6912,0.6932,0.6928,0.6948,0.6958,0.6949,0.696,0.6963,0.6963,0.6971,0.6971,0.698,0.6971,0.6974,0.6982,0.6983,0.6996,0.6981,0.6992,0.6993,0.6991,0.7023,0.7029,0.7053,0.7013,0.7013,0.7014,0,0.6944,0.695,0.6971,0.6974,0.6977,0.6987,0.6994,0.7001,0.7005,0.7005,0.701,0.7005,0.7017,0.7005,0.7021,0.7011,0.7015,0.7016,0.7017,0.7018,0.7004,0.7025,0.706,0.7064,0.7019,0.7018,0.7018,0,0.6968,0.6981,0.6995,0.6998,0.7001,0.7008,0.701,0.7013,0.7018,0.7025,0.7028,0.7035,0.7039,0.7045,0.7043,0.7034,0.706,0.7048,0.706,0.706,0.7065,0.7065,0.7101,0.7069,0.7069,0.7069,0.7068,0,0.6997,0.701,0.7006,0.7015,0.7029,0.7025,0.7039,0.704,0.7043,0.7051,0.7045,0.7053,0.705,0.7058,0.7056,0.707,0.7072,0.7072,0.7071,0.7072,0.7072,0.7075,0.7073,0.7069,0.7069,0.7069,0.7069,0,0.7025,0.7023,0.7038,0.704,0.7041,0.7051,0.7053,0.7061,0.706,0.7071,0.7074,0.7073,0.7082,0.708,0.7091,0.7089,0.7107,0.7104,0.7105,0.7104,0.7116,0.7115,0.7155,0.716,0.7125,0.7125,0.7125,0,0.7043,0.7053,0.7056,0.7061,0.7063,0.7072,0.7077,0.7073,0.7079,0.7084,0.7091,0.71,0.7106,0.7122,0.7122,0.713,0.7127,0.7141,0.7128,0.7129,0.7127,0.7126,0.7127,0.7143,0.7144,0.7144,0.7144,0,0.7076,0.7074,0.7082,0.7088,0.7094,0.71,0.7104,0.7109,0.7106,0.7112,0.7121,0.7126,0.7136,0.7145,0.7152,0.7154,0.7149,0.7148,0.7151,0.7152,0.7152,0.7152,0.7111,0.7147,0.7147,0.7147,0.7147,0.7146,0.71,0.7108,0.7111,0.7119,0.7122,0.7126,0.7134,0.7134,0.7142,0.7149,0.7147,0.7157,0.7161,0.717,0.7173,0.7181,0.7176,0.718,0.7182,0.7183,0.7184,0.7151,0.7182,0.7182,0.7182,0.7182,0.7182,0,0.7131,0.7133,0.714,0.7147,0.7153,0.7147,0.7152,0.7158,0.7167,0.7171,0.7177,0.7188,0.7196,0.7197,0.7205,0.7211,0.7209,0.7213,0.7212,0.7213,0.7188,0.7185,0.7215,0.7215,0.7215,0.7215,0.7215,0.7215,0.7148,0.7162,0.7161,0.7175,0.7177,0.7187,0.719,0.7194,0.7197,0.7209,0.7215,0.7216,0.7219,0.7226,0.7234,0.7234,0.7237,0.7242,0.7241,0.7218,0.7215,0.7212,0.7208,0.7243,0.7243,0.7265,0.7265,0.7265]},{"header":{"parameterUnit":"m.s-1","parameterCategory":1,"la1":30.2991,"la2":30.254,"lo1":-89.0895,"lo2":-89.0444,"dy":0.0017,"dx":0.0017,"nx":28,"ny":28,"refTime":"2024-05-27T09:00:00:Z","depth":0,"parameterNumber":3,"parameterNumberName":"V-component_of_WINDS"},"data":[0,0,0,0,0,0,0,0,0,0,0,0,0,0,0,0,0,0,0,0,0,0,0,0,0,0,0,0,0,0,0,0,0,0,0,0,0,0,0,0,0,0,0,0,0,0,0,0,0,0,0,0,0,0,0,0,0,0,1.0283,1.0284,0,1.0303,1.0304,1.0304,1.0281,1.0281,1.028,1.0279,1.0297,1.0298,1.0299,0,0,0,0,0,0,0,0,0,0,0,0,0,1.0223,1.0224,1.0283,1.0284,1.0284,1.0303,1.0304,1.0304,1.0282,1.0281,1.028,1.0279,1.0296,1.0298,1.0299,0,0,0,0,0,0,0,0,0,0,0,0,0,1.0247,1.0225,1.0283,1.0275,1.0275,1.0303,1.0304,1.0304,1.0282,1.0281,1.0279,1.0278,1.0296,1.0298,1.03,1.0336,0,0,1.0305,1.0306,0,0,0,0,0,0,0,0,1.0245,1.0249,1.0276,1.0276,1.0275,1.0289,1.0289,1.0315,1.0282,1.0279,1.0279,1.0277,1.0295,1.0297,1.0303,1.0337,1.0338,1.0305,1.0307,1.0307,1.0308,0,0,0,0,0,0,0,1.0244,1.0248,1.0291,1.0277,1.0276,1.027,1.0272,1.0294,1.0294,1.0279,1.0278,1.028,1.0294,1.0301,1.0303,1.0338,1.0305,1.0307,1.0308,1.0309,1.0404,1.0405,0,0,0,0,0,0,1.0243,1.0247,1.0291,1.0292,1.0257,1.0272,1.0274,1.0286,1.0293,1.0293,1.0281,1.0279,1.0299,1.0301,1.0304,1.0348,1.0307,1.0309,1.031,1.0402,1.0404,1.0405,0,0,0,0,0,0,1.0242,1.0248,1.029,1.0269,1.0274,1.0274,1.0287,1.0287,1.0294,1.0295,1.0295,1.0289,1.0298,1.0301,1.0329,1.0348,1.031,1.0312,1.0401,1.0403,1.0405,1.0437,0,0,0,0,0,0,1.0241,1.0247,1.0262,1.0269,1.0275,1.0315,1.0289,1.0288,1.0297,1.0295,1.0302,1.0302,1.0297,1.0326,1.0331,1.035,1.0313,1.0399,1.0402,1.0404,1.0434,1.0439,1.0444,0,0,0,0,0,1.0239,1.027,1.0263,1.0268,1.0294,1.0316,1.0319,1.0314,1.0299,1.0314,1.0314,1.0302,1.0345,1.0329,1.0334,1.0355,1.0398,1.0401,1.0404,1.0431,1.0438,1.0444,0,0,0,0,0,0,1.0263,1.027,1.0263,1.0298,1.0307,1.0313,1.0331,1.0322,1.0334,1.0331,1.0323,1.0325,1.0354,1.0357,1.0339,1.0391,1.0369,1.0373,1.0388,1.0395,1.04,1.0399,1.0315,0,0,0,0,0,1.0273,1.0292,1.0297,1.0327,1.0332,1.033,1.034,1.0335,1.0344,1.0347,1.035,1.0358,1.0374,1.0384,1.0399,1.0434,1.0435,1.045,1.0455,1.046,1.0464,1.0483,1.049,1.0416,1.0416,1.0416,0,0,1.0293,1.0299,1.0311,1.0332,1.0338,1.0357,1.0334,1.0355,1.0369,1.035,1.0377,1.0379,1.0387,1.0419,1.0433,1.0422,1.0484,1.0464,1.0467,1.0469,1.0487,1.0494,1.05,1.0418,1.0417,1.0417,0,0,1.0339,1.0346,1.0372,1.0379,1.0389,1.0388,1.0395,1.0402,1.0403,1.043,1.0416,1.0432,1.0459,1.0466,1.0473,1.0521,1.051,1.0526,1.0554,1.0573,1.0578,1.0584,1.0601,1.0608,1.053,1.053,1.053,0,1.0363,1.0392,1.0386,1.0408,1.0418,1.0403,1.0428,1.0435,1.0449,1.0456,1.0443,1.0477,1.0482,1.0515,1.0527,1.0533,1.0539,1.0526,1.0578,1.0583,1.0588,1.0605,1.0612,1.0532,1.0532,1.0531,1.0531,0,1.042,1.044,1.046,1.0475,1.0486,1.051,1.0507,1.0519,1.0513,1.0513,1.054,1.0545,1.0561,1.0568,1.0562,1.06,1.0593,1.058,1.0558,1.0597,1.0613,1.0619,1.0534,1.0534,1.0533,1.0533,0,0,1.0483,1.0495,1.0503,1.0509,1.052,1.0535,1.0558,1.0573,1.0584,1.0594,1.0613,1.0636,1.0624,1.0631,1.0626,1.0642,1.0681,1.0626,1.0626,1.0637,1.0724,1.0735,1.0742,1.0673,1.0674,1.0675,1.0723,0,1.053,1.0571,1.0567,1.0605,1.0624,1.061,1.063,1.0638,1.0638,1.0653,1.0653,1.067,1.0652,1.0657,1.0672,1.0673,1.0698,1.0669,1.069,1.0691,1.069,1.075,1.0762,1.0807,1.0729,1.073,1.0731,0,1.0591,1.0604,1.0645,1.0653,1.0661,1.0679,1.0693,1.0708,1.0716,1.0715,1.0724,1.0716,1.0738,1.0715,1.0745,1.0726,1.0734,1.0735,1.0737,1.0739,1.0714,1.0755,1.0821,1.0828,1.0741,1.074,1.0739,0,1.0634,1.0662,1.069,1.0696,1.0706,1.0719,1.0723,1.0731,1.074,1.0752,1.0759,1.0772,1.078,1.0791,1.0786,1.077,1.0817,1.0794,1.0817,1.0817,1.0828,1.0828,1.0898,1.0832,1.0832,1.0832,1.0832,0,1.0687,1.0713,1.071,1.0727,1.0756,1.0749,1.0777,1.0779,1.0786,1.0803,1.0791,1.0807,1.0799,1.0815,1.0811,1.0837,1.084,1.084,1.0839,1.0841,1.0842,1.0847,1.0844,1.0834,1.0834,1.0833,1.0833,0,1.074,1.0739,1.0769,1.0776,1.0778,1.0799,1.0804,1.082,1.0819,1.0841,1.0846,1.0845,1.0862,1.0858,1.0877,1.0874,1.0907,1.0902,1.0905,1.0904,1.0927,1.0926,1.1004,1.1014,1.0942,1.0942,1.0943,0,1.0775,1.0795,1.0804,1.0815,1.0821,1.0839,1.0849,1.0843,1.0854,1.0865,1.088,1.0896,1.0909,1.0938,1.0938,1.0952,1.0948,1.0974,1.095,1.0952,1.0949,1.0948,1.095,1.0979,1.098,1.098,1.0981,0,1.0837,1.0835,1.0851,1.0867,1.088,1.0892,1.0902,1.0912,1.0907,1.0919,1.0938,1.0948,1.0968,1.0984,1.0997,1.1001,1.099,1.0989,1.0995,1.0998,1.1,1.1,1.0919,1.0987,1.0986,1.0986,1.0986,1.0985,1.0882,1.0899,1.0909,1.0927,1.0934,1.0944,1.096,1.0962,1.0977,1.0994,1.0989,1.1009,1.1017,1.1034,1.1039,1.1054,1.1044,1.1053,1.1056,1.1058,1.1062,1.0997,1.1057,1.1056,1.1056,1.1056,1.1056,0,1.0944,1.095,1.0966,1.0982,1.0996,1.0985,1.0996,1.1009,1.1028,1.1036,1.1049,1.107,1.1086,1.1088,1.1103,1.1115,1.111,1.1119,1.1118,1.1119,1.1069,1.1063,1.1122,1.1122,1.1122,1.1122,1.1122,1.1122,1.0978,1.1007,1.1007,1.1038,1.1043,1.1064,1.1072,1.1081,1.1087,1.1112,1.1125,1.1126,1.1132,1.1147,1.1161,1.1161,1.1167,1.1178,1.1176,1.1129,1.1123,1.1117,1.1111,1.1179,1.1179,1.1225,1.1226,1.1226]}]]